Provo, UT

8:47 AM MST on December 14, 2019 (GMT -0700)
Provo Municipal

Weather History for KPVU - October, 2019

Change the Weather History Date:

Friday, October 25, 2019

  Actual Average Record
Temperature  
Mean Temperature 46 °F -  
Max Temperature 54 °F 54 °F 75 °F (2007)
Min Temperature 37 °F 33 °F 26 °F (1984)
Degree Days  
Heating Degree Days 20    
Moisture  
Dew Point 24 °F    
Average Humidity 44    
Maximum Humidity 73    
Minimum Humidity 24    
Precipitation  
Precipitation 0.00 in - - ()
Sea Level Pressure  
Sea Level Pressure 30.38 in    
Wind  
Wind Speed 3 mph (WSW)    
Max Wind Speed 8 mph    
Max Gust Speed -    
Visibility 10 miles    
Events      
Averages and records for this station are not official NWS values.
T = Trace of Precipitation, MM = Missing Value Source: NWS Daily Summary

Daily Weather History Graph

Daily Weather History Graph

Search for Another Location

Airport or City:

Astronomy

Oct. 25, 2019 Rise Set
Actual Time 7:48 AM MDT 6:33 PM MDT
Civil Twilight 7:20 AM MDT 7:00 PM MDT
Nautical Twilight 6:48 AM MDT 7:32 PM MDT
Astronomical Twilight 6:17 AM MDT 8:04 PM MDT
Moon 4:34 AM MDT (10/25) 5:37 PM MDT (10/25)
Length of Visible Light 11h 40m
Length of Day
10h 44m
Waning Crescent, 8% of the Moon is Illuminated
Oct 25
Waning Crescent
Oct 27
New
Nov 4
First Quarter
Nov 12
Full
Nov 19
Last Quarter

Hourly Weather History & Observations

Time (MDT) Temp. Windchill Dew Point Humidity Pressure Visibility Wind Dir Wind Speed Gust Speed Precip Events Conditions
12:56 AM - - - N/A% 30.51 in 10.0 mi SSE 5.8 mph - N/A   Clear
1:56 AM - - - N/A% 30.51 in 10.0 mi Calm Calm - N/A   Clear
2:56 AM - - - N/A% 30.50 in 10.0 mi SSE 4.6 mph - N/A   Clear
3:56 AM - - - N/A% 30.50 in 10.0 mi Calm Calm - N/A   Clear
4:56 AM - - - N/A% 30.49 in 10.0 mi Calm Calm - N/A   Clear
5:56 AM - - - N/A% 30.49 in 10.0 mi Calm Calm - N/A   Clear
6:56 AM - - - N/A% 30.50 in 10.0 mi Calm Calm - N/A   Clear
7:56 AM - - - N/A% 30.49 in 10.0 mi Calm Calm - N/A   Clear
8:56 AM - - - N/A% 30.50 in 10.0 mi Calm Calm - N/A   Clear
9:56 AM - - - N/A% 30.49 in 10.0 mi SSE 4.6 mph - N/A   Clear
10:56 AM - - - N/A% 30.48 in 10.0 mi West 4.6 mph - N/A   Clear
11:56 AM 45.0 °F 41.8 °F 26.1 °F 48% 30.45 in 10.0 mi WSW 5.8 mph - N/A   Clear
12:56 PM 48.0 °F - 27.0 °F 44% 30.41 in 10.0 mi WSW 5.8 mph - N/A   Clear
1:56 PM 50.0 °F - 25.0 °F 38% 30.37 in 10.0 mi West 6.9 mph - N/A   Clear
2:56 PM 52.0 °F - 18.0 °F 26% 30.34 in 10.0 mi West 4.6 mph - N/A   Clear
3:56 PM 54.0 °F - 19.9 °F 26% 30.30 in 10.0 mi West 8.1 mph - N/A   Clear
4:56 PM 54.0 °F - 18.0 °F 24% 30.28 in 10.0 mi WNW 6.9 mph - N/A   Clear
5:56 PM 53.1 °F - 19.9 °F 27% 30.25 in 10.0 mi Calm Calm - N/A   Clear
6:56 PM 48.9 °F - 21.9 °F 35% 30.24 in 10.0 mi Calm Calm - N/A   Clear
7:56 PM 45.0 °F - 21.0 °F 39% 30.22 in 10.0 mi Calm Calm - N/A   Clear
8:56 PM 44.1 °F - 27.0 °F 51% 30.20 in 10.0 mi Calm Calm - N/A   Clear
9:56 PM 41.0 °F - 30.9 °F 67% 30.18 in 10.0 mi Calm Calm - N/A   Clear
10:56 PM 37.9 °F 34.4 °F 30.0 °F 73% 30.17 in 10.0 mi NNW 4.6 mph - N/A   Clear
11:56 PM 37.9 °F - 28.0 °F 68% 30.15 in 10.0 mi Calm Calm - N/A   Clear